Flag for Vietnam Weather past 2 weeks in Ho Chi Minh, Vietnam

Now
88 °F

Partly sunny.


Feels Like: 98 °F
Forecast: 79 / 92 °F
Wind: 8 mph from Southwest

Location: Ho Chi Minh

Current Time: May 25, 2015 at 9:21:09 AM

Latest Report: May 25, 2015 at 9:00 AM


Visibility: N/A

Pressure: 29.83 "Hg

Humidity: 66%

Dew point: 75 °F

Location of Ho Chi MinhLocation

Historic Weather in Ho Chi Minh — Graph

°F

Ho Chi Minh temperature yesterday

Maximum temperature yesterday: 95 °F (at 1:00 PM)
Minimum temperature yesterday: 79 °F (at 3:30 AM)
Average temperature yesterday: 87 °F

Past Weeks' High & Low Weather Summary

 TemperatureHumidityPressure
High99 °F (May 19, 2:00 PM)94% (May 23, 2:30 AM)29.92 "Hg (May 23, 2:30 AM)
Low79 °F (May 12, 1:00 PM)34% (May 18, 1:30 PM)29.68 "Hg (May 10, 2:00 PM)
Average87 °F68%29.79 "Hg
* Reported May 10 8:00 AM — May 25 8:00 AM, Ho Chi Minh, Weather by CustomWeather, © 2015

Note: Actual official high and low records may vary slightly from our data, if they occured in-between our weather recording intervals... More about our weather records

Advertising

Ho Chi Minh weather history for previous 24 hours

 ConditionsComfort  
Time TempWeatherWind HumidityBarometerVisibility
8:00 AM
Mon, May 25
88 °FScattered clouds.8 mph70%29.80 "HgN/A
7:30 AM86 °FPassing clouds.6 mph75%29.80 "HgN/A
7:00 AM84 °FSunny.6 mph79%29.80 "Hg10 mi
6:30 AM84 °FSunny.5 mph79%29.77 "Hg10 mi
6:00 AM82 °FPassing clouds.6 mph84%29.77 "HgN/A
5:30 AM82 °FPassing clouds.6 mph79%29.77 "HgN/A
5:00 AM82 °FPassing clouds.6 mph79%29.77 "HgN/A
4:30 AM82 °FPassing clouds.6 mph79%29.77 "HgN/A
4:00 AM82 °FPassing clouds.5 mph79%29.77 "HgN/A
3:30 AM82 °FPassing clouds.6 mph79%29.77 "HgN/A
3:00 AM82 °FPassing clouds.5 mph79%29.77 "HgN/A
2:30 AM82 °FPassing clouds.7 mph79%29.77 "HgN/A
2:00 AM82 °FPassing clouds.8 mph79%29.77 "HgN/A
1:30 AM82 °FPassing clouds.8 mph79%29.77 "HgN/A
1:00 AM84 °FPassing clouds.9 mph74%29.77 "HgN/A
12:30 AM84 °FPassing clouds.9 mph74%29.80 "HgN/A
12:00 AM84 °FPassing clouds.9 mph74%29.80 "HgN/A
11:30 PM
Sun, May 24
84 °FPassing clouds.9 mph74%29.83 "HgN/A
11:00 PM84 °FPassing clouds.7 mph74%29.83 "HgN/A
10:30 PM84 °FPassing clouds.10 mph74%29.83 "HgN/A
10:00 PM86 °FPassing clouds.10 mph70%29.80 "HgN/A
9:30 PM86 °FPassing clouds.8 mph70%29.80 "HgN/A
9:00 PM86 °FPassing clouds.8 mph70%29.80 "HgN/A
8:30 PM86 °FPassing clouds.6 mph70%29.80 "HgN/A
8:00 PM86 °FHeavy rain. Passing clouds.5 mph70%29.77 "HgN/A
7:30 PM86 °FPassing clouds.6 mph70%29.77 "HgN/A
7:00 PM88 °FPassing clouds.6 mph66%29.74 "HgN/A
6:30 PM88 °FHeavy rain. Passing clouds.8 mph66%29.74 "HgN/A
6:00 PM88 °FPassing clouds.7 mph66%29.74 "HgN/A
5:30 PM90 °FPassing clouds.10 mph59%29.74 "HgN/A
5:00 PM90 °FPassing clouds.10 mph59%29.74 "HgN/A
4:30 PM93 °FScattered clouds.9 mph53%29.74 "HgN/A
4:00 PM93 °FScattered clouds.12 mph53%29.71 "HgN/A
3:30 PM93 °FScattered clouds.12 mph56%29.71 "HgN/A
3:00 PM93 °FPartly sunny.12 mph53%29.74 "HgN/A
2:30 PM95 °FPartly sunny.12 mph50%29.74 "HgN/A
2:00 PM95 °FPartly sunny.9 mph50%29.74 "HgN/A
1:30 PM93 °FPartly sunny.8 mph49%29.77 "HgN/A
1:00 PM95 °FPartly sunny.7 mph50%29.77 "HgN/A
12:30 PM93 °FPartly sunny.9 mph49%29.80 "HgN/A
12:00 PM93 °FPartly sunny.7 mph53%29.80 "HgN/A
11:30 AM93 °FPartly sunny.7 mph53%29.80 "HgN/A
11:00 AM91 °FScattered clouds.8 mph56%29.83 "HgN/A
10:30 AM91 °FScattered clouds.8 mph56%29.83 "HgN/A
10:00 AM91 °FScattered clouds.6 mph56%29.83 "HgN/A
9:30 AM90 °FScattered clouds.3 mph59%29.86 "HgN/A
9:00 AM90 °FPassing clouds.5 mph63%29.86 "HgN/A
Weather by CustomWeather, © 2015

See weather overviewHow to use our weather pages